User: anonymous   Login
Location: Okie-Tex Star Party
(36.8978°N, 102.9520°W)
Time: 04:21:15
(UTC-06:00)
Language:

Hamsat - Orbit

View from above orbital plane
View from above orbital plane
View from above satellite
View from above satellite

Ground track
Ground track

The orbit data is extracted from the following two-line orbital elements,

1 28650U 05017B   17054.48995041  .00000459  00000-0  54793-4 0  9991
2 28650  97.6383  32.7748 0024414 144.0981 216.1882 14.88567692639251
Epoch (UTC): 23 February 2017 11:45:31
Eccentricity: 0.0024414
inclination: 97.6383°
perigee height: 585 km
apogee height: 619 km
right ascension of ascending node: 32.7748°
argument of perigee: 144.0981°
revolutions per day: 14.88567692
mean anomaly at epoch: 216.1882°
orbit number at epoch: 63925

The dashed part of the orbit path shows where the satellite is in the earth's shadow,  

DLR